Zealand Delilah — PBZI — position and weather

sailwx.info

Track history (hours):
 
Tides and Currents Weather Stations Pressure Air Temp Water Temp Dewpoint Dewpoint Depression Visibility Wind Speed Wind Dir Waves Ship Positions

Zealand Delilah

Last reported at 2014-Sep-14 16:22 UTC. Time now 2014-Sep-15 02:07 UTC.
Position N 37°30' E 006°58'.

Length 135 m; draft 7.2 m.

Type: Ship. MMSI: 245935000.

Date/timePositionNaut miles runAvg speedWind from/ knotsBaromVisibWave heightAir tempDewpointWater temp
2014-Sep-14 16:22N 37°30' E 006°58'29511.4
2014-Sep-13 14:31N 36°51' E 013°04'1211.8
2014-Sep-13 13:30N 36°48' E 013°19'1111.8
2014-Sep-13 12:33N 36°44' E 013°32'1211.1
2014-Sep-13 11:30N 36°39' E 013°45'1210.9
2014-Sep-13 10:24N 36°34' E 013°58'1110.7
2014-Sep-13 09:22N 36°30' E 014°11'5 4.5
2014-Sep-13 08:20N 36°29' E 014°17'810.1
2014-Sep-13 07:30N 36°31' E 014°27'1111.9
2014-Sep-13 06:33N 36°28' E 014°41'41511.5
2014-Sep-11 18:26N 36°30' E 023°17'1212.9
2014-Sep-11 17:32N 36°40' E 023°25'1512.3
2014-Sep-11 16:16N 36°53' E 023°35'912.3
2014-Sep-11 15:33N 37°02' E 023°36'1212.1
2014-Sep-11 14:32N 37°14' E 023°39'1512.2
2014-Sep-11 13:20N 37°29' E 023°41'1012.2
2014-Sep-11 12:33N 37°38' E 023°42'1212.2
2014-Sep-11 11:33N 37°49' E 023°36'4 4.1
2014-Sep-11 10:31N 37°53' E 023°33'0 0.0
2014-Sep-11 09:31N 37°53' E 023°33'0 0.1
2014-Sep-11 08:31N 37°53' E 023°33'0 0.0
2014-Sep-11 07:28N 37°53' E 023°33'0 0.1
2014-Sep-11 06:33N 37°53' E 023°33'5 4.9
2014-Sep-11 05:33N 37°51' E 023°39'33 8.3
2014-Sep-11 01:33N 37°44' E 024°20'7711.1
2014-Sep-10 18:33N 38°50' E 025°11'6112.2
2014-Sep-10 13:33N 39°45' E 025°46'1812.6
2014-Sep-10 12:06N 40°01' E 025°59'  
2014-Sep-06 08:29N 40°58' E 028°56'0 0.0
2014-Sep-06 07:17N 40°58' E 028°56'0 0.1
2014-Sep-06 06:23N 40°58' E 028°56'0 0.0
2014-Sep-06 05:26N 40°58' E 028°56'0 0.1
2014-Sep-06 04:33N 40°58' E 028°56'0 0.0
2014-Sep-06 03:16N 40°58' E 028°56'0 0.0
2014-Sep-06 02:25N 40°58' E 028°56'0 0.0
2014-Sep-06 01:07N 40°58' E 028°56'0 0.0
2014-Sep-06 00:31N 40°58' E 028°56'0 0.0
2014-Sep-05 23:31N 40°58' E 028°56'0 0.0
2014-Sep-05 22:30N 40°58' E 028°56'0 0.0
2014-Sep-05 19:18N 40°58' E 028°56'0 0.0
2014-Sep-05 18:27N 40°58' E 028°56'0 0.0
2014-Sep-05 17:15N 40°58' E 028°56'0 0.0
2014-Sep-05 16:33N 40°58' E 028°56'0 0.0
2014-Sep-05 15:06N 40°58' E 028°56'0 0.0
2014-Sep-05 14:30N 40°58' E 028°56'0 0.0
2014-Sep-05 09:06N 40°58' E 028°56'0 0.0
2014-Sep-05 08:24N 40°58' E 028°56'0 0.1
2014-Sep-05 07:18N 40°58' E 028°56'0 0.1
2014-Sep-05 06:21N 40°58' E 028°56'0 0.0
2014-Sep-05 00:17N 40°58' E 028°56'0 0.0
2014-Sep-04 23:04N 40°58' E 028°56'0 0.0
2014-Sep-04 18:30N 40°58' E 028°56'3 3.0
2014-Sep-04 17:33N 40°56' E 028°58'7 6.9
2014-Sep-04 16:33N 40°50' E 028°52'  
Track history (hours):
 
Tides and Currents Weather Stations Pressure Air Temp Water Temp Dewpoint Dewpoint Depression Visibility Wind Speed Wind Dir Waves Ship Positions

Zealand Delilah

Last reported at 2014-Sep-14 16:22 UTC. Time now 2014-Sep-15 02:07 UTC.
Position N 37°30' E 006°58'.

Length 135 m; draft 7.2 m.

Type: Ship. MMSI: 245935000.

Date/timePositionNaut miles runAvg speedWind from/ knotsBaromVisibWave heightAir tempDewpointWater temp
2014-Sep-14 16:22N 37°30' E 006°58'29511.4
2014-Sep-13 14:31N 36°51' E 013°04'1211.8
2014-Sep-13 13:30N 36°48' E 013°19'1111.8
2014-Sep-13 12:33N 36°44' E 013°32'1211.1
2014-Sep-13 11:30N 36°39' E 013°45'1210.9
2014-Sep-13 10:24N 36°34' E 013°58'1110.7
2014-Sep-13 09:22N 36°30' E 014°11'5 4.5
2014-Sep-13 08:20N 36°29' E 014°17'810.1
2014-Sep-13 07:30N 36°31' E 014°27'1111.9
2014-Sep-13 06:33N 36°28' E 014°41'41511.5
2014-Sep-11 18:26N 36°30' E 023°17'1212.9
2014-Sep-11 17:32N 36°40' E 023°25'1512.3
2014-Sep-11 16:16N 36°53' E 023°35'912.3
2014-Sep-11 15:33N 37°02' E 023°36'1212.1
2014-Sep-11 14:32N 37°14' E 023°39'1512.2
2014-Sep-11 13:20N 37°29' E 023°41'1012.2
2014-Sep-11 12:33N 37°38' E 023°42'1212.2
2014-Sep-11 11:33N 37°49' E 023°36'4 4.1
2014-Sep-11 10:31N 37°53' E 023°33'0 0.0
2014-Sep-11 09:31N 37°53' E 023°33'0 0.1
2014-Sep-11 08:31N 37°53' E 023°33'0 0.0
2014-Sep-11 07:28N 37°53' E 023°33'0 0.1
2014-Sep-11 06:33N 37°53' E 023°33'5 4.9
2014-Sep-11 05:33N 37°51' E 023°39'33 8.3
2014-Sep-11 01:33N 37°44' E 024°20'7711.1
2014-Sep-10 18:33N 38°50' E 025°11'6112.2
2014-Sep-10 13:33N 39°45' E 025°46'1812.6
2014-Sep-10 12:06N 40°01' E 025°59'  
2014-Sep-06 08:29N 40°58' E 028°56'0 0.0
2014-Sep-06 07:17N 40°58' E 028°56'0 0.1
2014-Sep-06 06:23N 40°58' E 028°56'0 0.0
2014-Sep-06 05:26N 40°58' E 028°56'0 0.1
2014-Sep-06 04:33N 40°58' E 028°56'0 0.0
2014-Sep-06 03:16N 40°58' E 028°56'0 0.0
2014-Sep-06 02:25N 40°58' E 028°56'0 0.0
2014-Sep-06 01:07N 40°58' E 028°56'0 0.0
2014-Sep-06 00:31N 40°58' E 028°56'0 0.0
2014-Sep-05 23:31N 40°58' E 028°56'0 0.0
2014-Sep-05 22:30N 40°58' E 028°56'0 0.0
2014-Sep-05 19:18N 40°58' E 028°56'0 0.0
2014-Sep-05 18:27N 40°58' E 028°56'0 0.0
2014-Sep-05 17:15N 40°58' E 028°56'0 0.0
2014-Sep-05 16:33N 40°58' E 028°56'0 0.0
2014-Sep-05 15:06N 40°58' E 028°56'0 0.0
2014-Sep-05 14:30N 40°58' E 028°56'0 0.0
2014-Sep-05 09:06N 40°58' E 028°56'0 0.0
2014-Sep-05 08:24N 40°58' E 028°56'0 0.1
2014-Sep-05 07:18N 40°58' E 028°56'0 0.1
2014-Sep-05 06:21N 40°58' E 028°56'0 0.0
2014-Sep-05 00:17N 40°58' E 028°56'0 0.0
2014-Sep-04 23:04N 40°58' E 028°56'0 0.0
2014-Sep-04 18:30N 40°58' E 028°56'3 3.0
2014-Sep-04 17:33N 40°56' E 028°58'7 6.9
2014-Sep-04 16:33N 40°50' E 028°52'  

Dump ship's entire track history